Regional Weather Roundup
Issued by NWS

Home | Current Version | Previous Version | Text Only | Print | Product List | Glossary On
Versions: 1 2 3 4 5 6 7 8 9 10 11 12 13 14 15 16 17 18 19 20 21 22 23 24 25 26 27
000
ASUS44 KLIX 251207
RWRLA
LOUISIANA WEATHER ROUNDUP
NATIONAL WEATHER SERVICE NEW ORLEANS LA
700 AM CDT TUE APR 25 2017

NOTE: "FAIR" INDICATES FEW OR NO CLOUDS BELOW 12,000 FEET WITH NO
      SIGNIFICANT WEATHER AND/OR OBSTRUCTIONS TO VISIBILITY.
      SKY/WX - SKY CONDITION AND SIGNIFICANT WEATHER.
      TMP - AIR TEMPERATURE.    DP   - DEWPOINT TEMPERATURE.
      RH  - RELATIVE HUMIDITY.  PRES - PRESSURE.
      HX  - HEAT INDEX.         WCI  - WIND CHILL INDEX.

*  THESE STATIONS ARE NOT NWS OR FAA STATIONS AND ARE NOT UNDER
   NWS QUALITY CONTROL.

LAZ040-048-061>063-065-066-069-251300-
SOUTHEAST LOUISIANA

CITY           SKY/WX    TMP DP  RH WIND       PRES   REMARKS
N.O. INTL ARPT FAIR      58  56  93 S3        29.82R
6HR MIN TEMP:  56; 6HR MAX TEMP:  62;

N.O. LAKEFRONT FAIR      64  59  83 SW7       29.83R
6HR MIN TEMP:  61; 6HR MAX TEMP:  69;

N.O. DOWNTOWN*   N/A     64  57  78 S3          N/A
6HR MIN TEMP:  62; 6HR MAX TEMP:  67;

RESERVE*       NOT AVBL
SLIDELL        FAIR      52  49  89 CALM      29.82R
6HR MIN TEMP:  51; 6HR MAX TEMP:  55;

BATON ROUGE    FAIR      54  51  90 CALM      29.80R
6HR MIN TEMP:  52; 6HR MAX TEMP:  60;

BOOTHVILLE     FAIR      63  61  93 CALM      29.83R
6HR MIN TEMP:  62; 6HR MAX TEMP:  69;

BELLE CHASSE   MOCLDY    63  54  72 CALM      29.82R
BOGALUSA*      NOT AVBL
GALLIANO*      FAIR      51  49  92 CALM      29.82R
6HR MIN TEMP:  51; 6HR MAX TEMP:  60;

NEW ROADS*     FAIR      51  51  98 CALM      29.81R
6HR MIN TEMP:  51; 6HR MAX TEMP:  58;

GONZALES*      FAIR      53  52  97 CALM      29.80R
6HR MIN TEMP:  52; 6HR MAX TEMP:  57;

HAMMOND*       FAIR      50  46  87 CALM      29.81R
HOUMA*         CLEAR     54  54 100 CALM      29.82R
PORT FOURCHON* SUNNY     68  54  60 SW8       29.83R

$$

LAZ041-044-053-054-251300-
SOUTHWEST LOUISIANA

CITY           SKY/WX    TMP DP  RH WIND       PRES   REMARKS
LAKE CHARLES   FAIR      57  55  93 SE5       29.75R
6HR MIN TEMP:  56; 6HR MAX TEMP:  61;

LAFAYETTE      FAIR      61  57  87 CALM      29.79R
6HR MIN TEMP:  59; 6HR MAX TEMP:  65;

PATTERSON      FAIR      55  54  96 CALM      29.82R
6HR MIN TEMP:  54; 6HR MAX TEMP:  58;

SALT POINT       N/A     68  56  65 CALM      29.79R
6HR MIN TEMP:  67; 6HR MAX TEMP:  70;

NEW IBERIA     FAIR      55  51  86 E7        29.80R
6HR MIN TEMP:  53; 6HR MAX TEMP:  58;

CHENAULT AIRPK FAIR      47  46  97 SE5       29.76R
6HR MIN TEMP:  34; 6HR MAX TEMP:  47;


$$

LAZ027-028-251300-
CENTRAL LOUISIANA

CITY           SKY/WX    TMP DP  RH WIND       PRES   REMARKS
FORT POLK      FAIR      57  54  88 SE5       29.74S
6HR MIN TEMP:  57; 6HR MAX TEMP:  60;

ALEXANDRIA INT FAIR      54  52  93 SE5       29.75S
6HR MIN TEMP:  53; 6HR MAX TEMP:  60;

ALEXANDRIA     FAIR      48  48 100 CALM      29.77R
6HR MIN TEMP:  47; 6HR MAX TEMP:  52;


$$

LAZ001-002-251300-
NORTHWEST LOUISIANA

CITY           SKY/WX    TMP DP  RH WIND       PRES   REMARKS
SHREVEPORT     FAIR      56  54  93 SE7       29.69F
6HR MIN TEMP:  53; 6HR MAX TEMP:  60;

BARKSDALE AFB  FAIR      52  52  99 SE6       29.70S
6HR MIN TEMP:  52; 6HR MAX TEMP:  61;

DTN SHREVEPORT FAIR      60  54  80 SE8       29.70F
6HR MIN TEMP:  57; 6HR MAX TEMP:  65;


$$

LAZ014-016-251300-
NORTHEAST LOUISIANA

CITY           SKY/WX    TMP DP  RH WIND       PRES   REMARKS
MONROE         FAIR      51  49  92 CALM      29.77R
6HR MIN TEMP:  50; 6HR MAX TEMP:  59;

TALLULAH       FAIR      51  50  96 CALM      29.79S
6HR MIN TEMP:  50; 6HR MAX TEMP:  54;


$$





USA.gov is the U.S. government's official web portal to all federal, state and local government web resources and services.